This is the latest recevied weather packets stored in our database for station/object KD9DOE. If no packets are shown the sender has not sent any weather packets the latest 10 day(s).
| Time | Temp. | Humidity | Pressure | Rain* | Wind** | Luminosity | Snow |
|---|---|---|---|---|---|---|---|
| 1777733059 | 10.56° C | 43% | 1019.2 hPa | 0 mm | - | 514 W/m² | - |
| 1777732754 | 10.56° C | 42% | 1019.4 hPa | 0 mm | - | 503 W/m² | - |
| 1777732451 | 10° C | 43% | 1019.4 hPa | 0 mm | - | 491 W/m² | - |
| 1777732149 | 10° C | 43% | 1019.3 hPa | 0 mm | - | 479 W/m² | - |
| 1777731846 | 10° C | 43% | 1019.3 hPa | 0 mm | - | 466 W/m² | - |
| 1777731543 | 9.44° C | 46% | 1019.5 hPa | 0 mm | - | 367 W/m² | - |
| 1777731241 | 8.89° C | 47% | 1019.5 hPa | 0 mm | - | 280 W/m² | - |
| 1777730938 | 8.89° C | 46% | 1019.6 hPa | 0 mm | - | 169 W/m² | - |
| 1777730636 | 8.89° C | 47% | 1019.4 hPa | 0 mm | - | 184 W/m² | - |
| 1777730332 | 8.33° C | 49% | 1019.4 hPa | 0 mm | - | 222 W/m² | - |
| 1777730029 | 8.33° C | 48% | 1019.5 hPa | 0 mm | - | 112 W/m² | - |
| 1777729725 | 8.33° C | 52% | 1019.7 hPa | 0 mm | - | 99 W/m² | - |
| 1777729422 | 8.33° C | 50% | 1019.5 hPa | 0 mm | - | 63 W/m² | - |
| 1777729118 | 8.33° C | 52% | 1019.6 hPa | 0 mm | - | 178 W/m² | - |
| 1777728815 | 7.78° C | 54% | 1019.6 hPa | 0 mm | - | 122 W/m² | - |
| 1777728512 | 7.78° C | 55% | 1019.5 hPa | 0 mm | - | 87 W/m² | - |
| 1777728209 | 7.78° C | 56% | 1019.6 hPa | 0 mm | - | 105 W/m² | - |
| 1777727906 | 7.78° C | 58% | 1019.6 hPa | 0 mm | - | 135 W/m² | - |
| 1777727603 | 7.22° C | 60% | 1019.6 hPa | 0 mm | - | 162 W/m² | - |
| 1777727300 | 7.22° C | 60% | 1019.7 hPa | 0 mm | - | 58 W/m² | - |
| 1777726998 | 6.67° C | 62% | 1019.8 hPa | 0 mm | - | 91 W/m² | - |
| 1777726694 | 6.67° C | 62% | 1019.7 hPa | 0 mm | - | 55 W/m² | - |
| 1777726392 | 6.11° C | 64% | 1019.7 hPa | 0 mm | - | 133 W/m² | - |
| 1777726089 | 6.11° C | 65% | 1019.7 hPa | 0 mm | - | 69 W/m² | - |
| 1777725785 | 6.11° C | 67% | 1019.8 hPa | 0 mm | - | 92 W/m² | - |
* Rain latest hour (hover to see other rain measurements)
** Current wind speed in m/s (hover to see current wind gust speed)